Location: Great Snoring
(52.8667°N, 0.8833°E)
Time: 06:05:28
(UTC+00:00)

SL-16 R/B - Pass Details

Date: 19 May 2025
Orbit: 841 x 844 km, 71.0° (Epoch: 18 June)

Event Time Altitude Azimuth Distance (km) Brightness Sun altitude
Rises 20:55:08 0° 327° (NNW) 3,415 7.6 -7.6°
Reaches altitude 10° 20:58:05 10° 341° (NNW) 2,477 5.9 -7.9°
Maximum altitude 21:02:38 24° 34° (NE) 1,687 4.0 -8.4°
Drops below altitude 10° 21:07:11 10° 88° (E) 2,470 4.3 -8.8°
Enters shadow 21:09:29 - 100° (E) 3,192 4.8 -9.0°
